STARLINK-11199, 60404

Orbit data source: Space-Track

STARLINK-11199, 60404 is a payload satellite owned by SpaceX/Seattle (US) in LEO that was launched on Sat, 10 Aug 2024 UTC via an FALCON 9 launch vehicle from the Air Force Eastern Test Range (AFETR). Payload-class satellites include a variety of spacecraft equipped with specific instruments for various scientific and technological missions. These include communications satellites like Starlink; space stations such as the ISS; scientific satellites like the Hubble; Earth observation satellites from companies like Planet Labs, Umbra, and HawkEye 360; GPS; miniature CubeSats for education and research; and military/defense satellites.

Loading next visibility...
Identifier
60404, 2024-141G
Orbit
LEO
Country
Flag of USUS
Related business
Manufacturer
SpaceX/Seattle
Mission
Operational Commercial Communications
Bus & Motor
STARLINK V2MD, Unknown motor
Mass
960 kg wet, ~910 kg dry
Launch date (UTC)
2024-08-10 (1 year ago)
Launch vehicle
FALCON 9
Launch site
Air Force Eastern Test Range (AFETR)
Object type
Payload
Rocket body
Debris
Shape & HBR
Box + 2 Pan, 14.5 m
Radar Cross Section
36.964 m², Large (>1 m²)

Expand to show TLE details & history
Last TLE update: 22 hours ago

TLE from 22 hours ago
0 STARLINK-11199
1 60404U 24141G   25260.28502760 -.00001657  00000-0 -88384-5 0  9998
2 60404  53.1591 221.3838 0000588 105.2844 254.8239 15.69690648 64504
Epoch: 2025-09-17T06:50Z
TLE epoch observation values (Epoch: 2025-09-17T06:50:26.384Z)
Latitude
-0.00002°
Longitude
122.31068°
Altitude
360.801 km
Speed
7.694 km/s
True Right ascension
14h 45m 32s
True Declination
0° 00' 00"
Sunlit
Object was in daylight at epoch
Visualization orbit readout
Latitude
Unknown
Longitude
Unknown
Altitude
Unknown
Speed
Unknown
Apparent Right ascension
Unknown
Apparent Declination
Unknown
Sunlit
N/A
Visualization observer readout
Local Sidereal Time
21:57:55
Azimuth
Unknown
Elevation
Unknown
Doppler factor
Unknown
Orbital elements
Apogee altitude
360.439 km
Perigee altitude
359.647 km
Semi-major axis
6,738.18 km
Eccentricity
0.00006
Inclination
53.1591°
RAAN
221.3838°
Arg. of periapsis
105.2844°
True anomaly
254.8174°
Mean anomaly
254.8239°
Eccentric anomaly
254.82065°
Mean motion
3.924 °/min
Orbital period
91.74 mins
BSTAR
-0.0000088384
Loading maneuver chart data...
Computing Atmospheric mass density...
Loading historical data...
Loading historical data...
Loading historical data...
Loading historical data...
Loading historical data...
Loading historical data...
Loading historical data...

Documentation

Showing up to 5 results
|